Weather History for Dickinson, ND

Change the Weather History Date:

Thursday, August 23, 2012

  Actual Average Record
Temperature  
Mean Temperature 73 °F 67 °F  
Max Temperature 94 °F 82 °F 104 °F (1937)
Min Temperature 52 °F 52 °F 31 °F (1911)
Degree Days  
Heating Degree Days 0 2  
Month to date heating degree days 36 29  
Since 1 June heating degree days 105 200  
Since 1 July heating degree days 37 63  
Cooling Degree Days 8 4  
Month to date cooling degree days 88 126  
Year to date cooling degree days 501 355  
Since 1 June cooling degree days 488 345  
Growing Degree Days 23 (Base 50)    
Moisture  
Dew Point 44 °F    
Average Humidity 44    
Maximum Humidity 72    
Minimum Humidity 15    
Precipitation  
Precipitation 0.00 in 0.05 in 2.95 in (1995)
Month to date precipitation 1.15 1.14  
Year to date precipitation 8.40 11.89  
Sea Level Pressure  
Sea Level Pressure 29.75 in    
Wind  
Wind Speed 7 mph (NNE)    
Max Wind Speed 20 mph    
Max Gust Speed 24 mph    
Visibility 10 miles    
Events      
T = Trace of Precipitation, MM = Missing Value Source: NWS Daily Summary

Daily Weather History Graph

Daily Weather History Graph

Search for Another Location

Airport:

Trip Planner

Search our weather history database for the weather conditions in past years. The results will help you decide how hot, cold, wet, or windy it might be!

Date:

Astronomy

Aug. 23, 2012 Rise Set
Actual Time 5:59 AM MDT 7:46 PM MDT
Civil Twilight 5:27 AM MDT 8:18 PM MDT
Nautical Twilight 4:48 AM MDT 8:57 PM MDT
Astronomical Twilight 4:04 AM MDT 9:40 PM MDT
Moon 1:20 PM MDT (8/23) 10:45 PM MDT (8/23)
Length of Visible Light 14h 50m
Length of Day
13h 46m
Waxing Crescent, 41% of the Moon is Illuminated
Aug 23
Waxing Crescent
Aug 24
First Quarter
Aug 31
Full
Sep 8
Last Quarter
Sep 15
New

Hourly Weather History & Observations

Time (MDT) Temp. Dew Point Humidity Pressure Visibility Wind Dir Wind Speed Gust Speed Precip Events Conditions
12:56 AM 63.0 °F 48.0 °F 58% 29.79 in 10.0 mi West 8.1 mph - N/A   Mostly Cloudy
2:56 AM 57.9 °F 46.9 °F 67% 29.78 in 10.0 mi SW 4.6 mph - N/A   Clear
3:56 AM 61.0 °F 46.9 °F 60% 29.78 in 10.0 mi WNW 6.9 mph - N/A   Clear
4:56 AM 57.0 °F 46.0 °F 67% 29.79 in 10.0 mi West 6.9 mph - N/A   Clear
5:56 AM 55.9 °F 46.0 °F 69% 29.81 in 10.0 mi West 5.8 mph - N/A   Clear
6:56 AM 60.1 °F 46.9 °F 62% 29.81 in 10.0 mi NW 8.1 mph - N/A   Clear
7:56 AM 68.0 °F 48.0 °F 49% 29.82 in 10.0 mi WNW 8.1 mph - N/A   Clear
8:56 AM 75.9 °F 48.9 °F 38% 29.82 in 10.0 mi NW 3.5 mph - N/A   Clear
9:56 AM 84.0 °F 44.1 °F 25% 29.82 in 10.0 mi NNW 6.9 mph - N/A   Clear
10:56 AM 87.1 °F 43.0 °F 21% 29.81 in 10.0 mi Variable 3.5 mph - N/A   Clear
11:56 AM 88.0 °F 39.9 °F 18% 29.79 in 10.0 mi Calm Calm - N/A   Clear
12:56 PM 88.0 °F 37.0 °F 16% 29.78 in 10.0 mi Variable 4.6 mph - N/A   Clear
1:56 PM 90.0 °F 37.0 °F 15% 29.77 in 10.0 mi Calm Calm - N/A   Clear
2:56 PM 91.9 °F 37.9 °F 15% 29.75 in 10.0 mi Variable 4.6 mph - N/A   Clear
3:56 PM 91.9 °F 37.9 °F 15% 29.73 in 10.0 mi NNE 5.8 mph - N/A   Clear
4:56 PM 90.0 °F 39.9 °F 17% 29.72 in 10.0 mi ENE 6.9 mph - N/A   Clear
5:56 PM 91.0 °F 39.9 °F 17% 29.70 in 10.0 mi East 10.4 mph - N/A   Clear
6:56 PM 84.9 °F 43.0 °F 23% 29.70 in 10.0 mi ESE 12.7 mph - N/A   Clear
7:56 PM 75.9 °F 45.0 °F 33% 29.70 in 10.0 mi East 8.1 mph - N/A   Clear
8:56 PM 73.0 °F 45.0 °F 37% 29.70 in 10.0 mi East 10.4 mph - N/A   Clear
9:56 PM 66.9 °F 46.9 °F 49% 29.69 in 10.0 mi East 9.2 mph - N/A   Clear
10:56 PM 72.0 °F 46.9 °F 41% 29.66 in 10.0 mi ESE 11.5 mph - N/A   Clear
11:56 PM 72.0 °F 46.0 °F 40% 29.63 in 10.0 mi SE 15.0 mph 21.9 mph N/A   Clear